Regional Weather Roundup
Issued by NWS

Home | Current Version | Previous Version | Graphics & Text | Print | Product List | Glossary On
Versions: 1 2 3 4 5 6 7 8 9 10 11 12 13 14 15 16 17 18 19 20 21 22 23 24 25 26 27 28 29 30 31 32 33 34 35 36 37 38 39 40 41 42 43 44 45 46 47 48 49 50
000
ASUS43 KIND 280709
RWRIN

WEATHER ROUNDUP FOR INDIANA
NATIONAL WEATHER SERVICE INDIANAPOLIS IN
300 AM EDT WED JUN 28 2017

NOTE: "FAIR" INDICATES FEW OR NO CLOUDS BELOW 12,000 FEET WITH NO
SIGNIFICANT WEATHER AND/OR OBSTRUCTIONS TO VISIBILITY.

* - STATION DOES NOT REPORT WEATHER SUCH AS PRECIPITATION OR FOG.

+ - STATION NOT QUALITY CONTROLLED BY THE NATIONAL WEATHER SERVICE.
    USE DATA WITH CAUTION...ESPECIALLY DEWPOINT AND RELATIVE
    HUMIDITY OBSERVATIONS.

INZ001>003-010>013-019-020-280800-
NORTHWEST INDIANA

CITY           SKY/WX    TMP DP  RH WIND       PRES   REMARKS
GARY /AIRPORT/ CLEAR     62  46  54 S3        30.07S
KNOX *+        CLEAR     55  41  58 S6        30.08S
LA PORTE +     CLEAR     55  48  78 CALM      30.09S
MICHIGAN CITY+ CLEAR     59  46  63 S6        30.08R
MONTICELLO +   CLEAR     61  49  64 S5        30.09S
RENSSELAER +   CLEAR     57  46  67 SE3       30.09R
VALPARAISO     CLEAR     59  49  69 CALM      30.08S

$$

LMZ046-743>745-280800-
SOUTHERN LAKE MICHIGAN

STATION/POSITION TIME  TEMP    WIND        PRES    WAVE
                       AIR SEA DIR/SP/G            HT
                 (UTC) (F)     (DEG/KT/KT) (MB)    (FT)
BURNS HARBOR     0702   62     190/ 10/ 12 1018.6
MICHIGAN CITY    0640   63     160/ 12/ 14   N/A
5NW MICH CITY    0700   63 66  180/ 12/ 14   N/A     1

$$

INZ004-005-014>016-021>024-280800-
NORTH CENTRAL INDIANA

CITY           SKY/WX    TMP DP  RH WIND       PRES   REMARKS
GOSHEN         CLEAR     53  46  77 S3        30.09S
LOGANSPORT +   CLEAR     54  48  82 S3        30.10F
PERU/GRISSOM   CLEAR     56  49  76 S7        30.09S
ROCHESTER +    CLEAR     61  50  67 S3        30.10S
SOUTH BEND     PTCLDY    55  45  68 SW3       30.09S
WARSAW +       CLEAR     52  48  87 CALM      30.09F

$$

INZ006>009-017-018-025>027-280800-
NORTHEAST INDIANA

CITY           SKY/WX    TMP DP  RH WIND       PRES   REMARKS
ANGOLA *+      CLEAR     50  41  71 CALM      30.10S
AUBURN +       PTCLDY    52  46  82 CALM      30.11S
FORT WAYNE     PTCLDY    57  50  77 CALM      30.12R
HUNTINGTON +   CLEAR     54  51  91 CALM      30.11S
KENDALLVILLE + CLEAR     52  49  89 CALM      30.10S

$$

INZ028-029-035-036-043>045-051>053-280800-
WEST CENTRAL INDIANA

CITY           SKY/WX    TMP DP  RH WIND       PRES   REMARKS
CRAWFORDSVL +  CLEAR     51  51 100 SE3       30.10F
GREENCASTLE +  CLEAR     54  50  87 CALM      30.11S
LAFAYETTE      CLEAR     54  50  86 CALM      30.09S
TERRE HAUTE    CLEAR     58  49  72 SE3       30.10S

$$

INZ030>032-037>040-046>048-054>057-064-065-280800-
CENTRAL INDIANA

CITY           SKY/WX    TMP DP  RH WIND       PRES   REMARKS
CP ATTERBURY + CLEAR     50  48  93 CALM      30.13S
FRANKFORT +    CLEAR     55  51  85 S3        30.11F
GREENWOOD *+   PTCLDY    58  50  76 S5        30.12F
INDIANAPOLIS   CLEAR     58  48  69 S3        30.10F
-EAGLE CREEK   CLEAR     56  52  86 CALM      30.10F
KOKOMO +       CLEAR     56  50  80 S3        30.11F
MT COMFORT *+  CLEAR     55  50  82 S5        30.12S
SHELBYVILLE    CLEAR     54  49  83 SE3       30.11F
ZIONSVILLE +   CLEAR     54  52  94 CALM      30.11F

$$

INZ033-034-041-042-049-050-058-059-280800-
EAST CENTRAL INDIANA

CITY           SKY/WX    TMP DP  RH WIND       PRES   REMARKS
MUNCIE         CLEAR     59  47  64 S3        30.12S
RICHMOND +     CLEAR     52  48  87 S5        30.14S

$$

INZ060-061-067>069-081>083-085>088-280800-
SOUTHWEST INDIANA

CITY           SKY/WX    TMP DP  RH WIND       PRES   REMARKS
EVANSVILLE     CLEAR     57  54  89 CALM      30.10S
HUNTINGBURG *+ CLEAR     58  52  80 SE5       30.10F
WASHINGTON +   CLEAR     55  53  94 CALM      30.10F

$$

INZ062-063-066-070>080-084-089>092-280800-
SOUTH CENTRAL AND SOUTHEAST INDIANA

CITY           SKY/WX    TMP DP  RH WIND       PRES   REMARKS
BEDFORD +      PTCLDY    55  50  82 CALM      30.12S
BLOOMINGTON    CLEAR     53  48  83 CALM      30.11F
MADISON *+     PTCLDY    55  54  94 CALM      30.15F
NORTH VERNON + CLEAR     55  50  82 CALM      30.14S
SEYMOUR +      CLEAR     55  54  94 CALM      30.12F

$$





USA.gov is the U.S. government's official web portal to all federal, state and local government web resources and services.